This is the latest recevied weather packets stored in our database for station/object KD4EED. If no packets are shown the sender has not sent any weather packets the latest 10 day(s).
| Time | Temp. | Humidity | Pressure | Rain* | Wind** | Luminosity | Snow |
|---|---|---|---|---|---|---|---|
| 1777910972 | 16.67° C | 64% | 1012.8 hPa | - | - | 59 W/m² | - |
| 1777910671 | 16.67° C | 65% | 1012.8 hPa | - | - | 65 W/m² | - |
| 1777910366 | 16.67° C | 66% | 1012.8 hPa | - | - | 77 W/m² | - |
| 1777910063 | 16.11° C | 69% | 1012.7 hPa | - | - | 69 W/m² | - |
| 1777909761 | 16.11° C | 71% | 1012.9 hPa | - | - | 64 W/m² | - |
| 1777909457 | 16.11° C | 70% | 1012.7 hPa | - | - | 62 W/m² | - |
| 1777909156 | 16.11° C | 70% | 1012.7 hPa | - | - | 54 W/m² | - |
| 1777908853 | 16.11° C | 71% | 1012.7 hPa | - | - | 48 W/m² | - |
| 1777908550 | 15.56° C | 72% | 1012.9 hPa | - | - | 48 W/m² | - |
| 1777908247 | 15.56° C | 74% | 1012.7 hPa | - | - | 50 W/m² | - |
| 1777907943 | 15.56° C | 74% | 1012.5 hPa | - | - | 64 W/m² | - |
| 1777907638 | 15.56° C | 74% | 1012.6 hPa | - | - | 61 W/m² | - |
| 1777907334 | 15° C | 74% | 1012.5 hPa | - | - | 59 W/m² | - |
| 1777907031 | 15° C | 74% | 1012.7 hPa | - | - | 52 W/m² | - |
| 1777906729 | 15° C | 74% | 1012.5 hPa | - | - | 60 W/m² | - |
| 1777906424 | 15° C | 73% | 1012.6 hPa | - | - | 76 W/m² | - |
| 1777906122 | 15° C | 73% | 1012.4 hPa | - | - | 45 W/m² | - |
| 1777905818 | 15° C | 72% | 1012.6 hPa | - | - | 40 W/m² | - |
| 1777905516 | 15° C | 73% | 1012.4 hPa | - | - | 69 W/m² | - |
| 1777905212 | 15° C | 73% | 1012.4 hPa | - | - | 78 W/m² | - |
| 1777904909 | 14.44° C | 75% | 1012.5 hPa | - | - | 64 W/m² | - |
| 1777904607 | 14.44° C | 76% | 1012.5 hPa | - | - | 58 W/m² | - |
| 1777904304 | 14.44° C | 76% | 1012.5 hPa | - | - | 42 W/m² | - |
| 1777904001 | 14.44° C | 76% | 1012.4 hPa | - | - | 26 W/m² | - |
| 1777903697 | 14.44° C | 76% | 1012.3 hPa | - | - | 32 W/m² | - |
* Rain since midnight (hover to see other rain measurements)
** Current wind speed in m/s (hover to see current wind gust speed)